FLOCK 4BE-30 (60499 NORAD) Tracking and Keplerian Element Data

This shows tracking and keplerian element data for the satellite.

Feedback or suggestion? Click here.




ElementValue
Catalog60499
NameFLOCK 4BE-30
Epoch Orbit803
Epoch Day286.82497334
Epoch Year2024
RAAN1.5361
Inclination97.4405
Eccentricity0.0003238
Argument of Perigee289.5863
Mean Anonmoly70.5022
Mean Motion15.19901755
Decay Rate0.00021805
L11 60499U 24149AH 24286.82497334 .00021805 00000+0 10161-2 0 9996
L22 60499 97.4405 1.5361 0003238 289.5863 70.5022 15.19901755 8032



Live tracking and technical data element details for FLOCK 4BE-30 (NORAD 60499). FLOCK 4BE-30 can be tracked NOW for your location showing map with azimuth and elevation plus other details from your city location.







IsCatalogInMostPopularTable: catalog: 60499, numindb: 6
Update: records affected: 1



GetName: 60499 FLOCK 4BE-30

Hit Count: updated at: Tue, 03 Dec 2024 03:16:24 GMT